Temperature
18 18 18 17 17 17 17 17 18 18 18 19 19 19 19 18 18 18 17 18 17 17 17 17 18 18 18 18 18 17 17 17 18 18 17 17 17 18 18 18 18 18 17
18 18 18 18 18 17 17 17 18 18 18 18 18 18 18 19 18 18 18 17 17 17 17 17 17 17 17 17 18 17 17 17 17 17 17 17 17 17 17 17 17 17 17
18 18 18 18 18 17 18 18 18 18 18 18 18 18 19 18 18 18 18 17 17 17 17 17 17 17 17 17 17 17 17 17 17 17 17 17 17 17 17 17 17 17 17
18 18 18 18 17 18 17 17 18 17 18 18 18 19 19 18 18 18 18 17 17 17 17 17 17 17 17 17 17 17 17 17 17 17 17 17 17 17 17 17 17 17 16
18 18 18 18 18 17 17 17 17 18 18 18 18 18 18 18 18 18 18 18 17 17 17 17 17 17 17 17 17 17 17 17 17 17 17 17 17 17 17 17 17 16 16
18 18 18 18 18 17 17 17 17 17 17 17 18 18 18 18 18 18 18 18 18 17 17 17 17 17 17 17 17 17 17 17 17 17 17 17 17 17 17 17 17 16 16
18 18 18 18 18 18 18 17 17 17 17 17 18 18 18 18 18 18 18 18 18 17 17 17 17 17 17 17 17 17 17 17 16 16 16 16 16 16 16 16 16 16 16
18 18 18 18 18 18 18 17 17 17 17 17 17 18 18 18 18 18 18 17 18 18 17 17 17 17 17 17 17 17 17 17 17 16 16 16 16 16 16 16 16 16 16
18 18 18 18 18 18 18 17 17 17 17 17 17 17 17 18 18 18 18 17 17 18 17 17 17 17 17 16 16 17 17 17 17 16 16 16 16 16 16 16 17 16 16
17 17 17 17 17 17 18 17 17 17 17 17 17 17 17 17 17 17 17 17 17 17 17 17 17 17 17 17 16 17 17 17 17 17 16 16 16 16 17 16 16 16 16
16 17 17 17 17 17 17 17 17 17 17 17 16 16 16 16 16 16 17 17 17 17 17 17 17 17 17 17 16 16 17 17 16 16 16 16 16 16 16 16 16 16 16
16 16 16 16 17 17 17 17 17 17 16 16 16 16 16 16 16 16 16 16 16 16 16 17 17 17 16 16 16 16 16 16 16 16 16 16 16 16 16 16 16 16 15
15 15 15 16 16 16 16 16 16 16 16 16 16 16 16 16 16 16 15 15 15 16 16 16 16 16 16 16 16 16 16 16 16 16 16 16 16 16 16 16 16 15 15
14 15 15 15 15 15 16 16 16 16 15 16 16 15 15 15 15 15 15 15 15 15 15 16 16 16 16 16 16 16 16 16 16 16 16 16 15 15 15 15 15 15 15
14 14 14 14 15 15 15 15 15 15 15 15 15 15 15 15 15 15 15 14 14 14 14 15 15 15 15 15 16 16 16 16 16 16 16 15 15 15 15 15 15 15 15
13 14 14 14 14 14 14 14 14 14 14 14 14 14 14 14 14 14 14 14 14 14 14 14 14 15 15 15 15 15 15 16 16 16 16 15 15 15 15 15 15 15 14
13 13 13 13 13 13 13 14 13 14 14 14 14 14 14 14 14 14 14 13 13 13 14 14 14 14 14 14 15 15 15 15 15 15 15 15 15 15 14 14 14 14 14
13 13 13 13 13 13 13 13 13 13 13 13 13 13 13 13 13 13 13 13 13 13 13 13 14 14 14 14 14 14 15 15 15 15 15 15 15 14 14 14 14 14 14
12 12 12 12 13 13 13 13 13 13 13 13 13 13 13 13 13 13 13 13 13 13 13 13 13 13 13 14 14 14 14 14 14 14 14 14 14 14 14 14 14 14 14
12 12 12 12 12 12 12 12 12 12 12 12 12 12 12 12 12 12 12 12 13 13 13 13 13 13 13 13 13 13 13 14 13 13 14 14 14 14 14 13 13 13 13
11 11 11 11 12 12 12 12 12 12 12 12 12 12 12 12 12 12 12 12 13 13 13 13 13 13 13 13 13 13 13 13 13 13 13 13 13 13 13 13 13 13 13
11 11 11 11 12 12 12 12 12 12 12 12 12 12 12 12 12 12 12 13 13 13 13 13 13 13 13 13 13 13 13 13 13 12 12 12 12 12 12 12 12 12 12
11 11 11 11 11 11 12 12 12 12 12 12 12 12 12 12 12 12 12 13 13 13 13 13 13 13 13 13 13 13 13 13 12 12 12 11 11 11 11 11 11 11 11
10 11 11 11 11 11 11 11 12 11 11 12 12 12 12 12 12 12 12 12 12 13 13 12 13 12 13 13 13 13 13 12 12 12 12 11 11 10 10 10 10 10 10
9 9 10 10 10 10 11 11 11 10 11 11 11 11 11 12 12 12 12 12 12 13 13 13 13 13 13 13 13 12 12 12 12 11 11 11 10 10 10 10 10 10 10
9 9 9 9 9 9 10 10 10 10 10 10 11 11 11 12 12 12 12 12 12 13 13 13 13 13 13 13 12 12 12 12 12 11 11 11 10 10 9 9 9 9 9
Wind_Speed
8 8 8 8 8 8 8 7 8 7 7 7 7 7 7 6 4 2 4 6 3 1 1 2 4 4 4 3 2 3 3 4 4 5 6 7 8 8 7 7 6 5 4
10 8 9 8 8 8 8 8 9 7 7 6 6 7 6 6 5 4 3 6 5 2 0 2 3 4 5 5 3 2 3 5 5 5 6 6 7 7 7 6 5 5 5
12 10 9 9 9 10 10 9 9 8 7 6 7 8 7 6 6 6 4 3 4 6 3 1 2 2 4 5 5 4 3 5 5 5 6 6 7 7 7 6 6 6 6
14 11 9 10 10 9 8 8 8 8 8 8 8 7 7 6 8 7 6 6 3 2 5 5 2 2 3 4 5 5 5 5 5 5 5 6 6 6 6 6 6 7 7
14 12 9 10 11 9 8 8 9 8 8 7 7 6 7 7 7 8 8 7 5 4 3 6 5 3 2 3 4 5 6 6 6 6 5 5 6 6 5 5 5 6 6
13 12 9 11 10 8 8 8 9 8 7 7 8 7 8 7 7 8 8 7 6 6 5 4 5 7 5 4 3 3 4 6 6 6 6 5 5 5 4 3 3 3 3
14 12 9 10 9 9 10 10 8 9 7 7 7 8 9 9 10 8 8 8 8 7 7 7 5 4 6 7 5 3 3 5 5 6 6 6 5 5 4 3 2 2 1
15 12 12 10 10 9 11 11 9 6 6 6 6 6 7 9 9 10 9 9 9 8 9 9 8 7 5 5 8 5 3 3 4 5 5 6 6 5 4 3 3 2 2
13 14 13 12 11 10 10 11 11 10 8 7 7 6 5 7 6 8 11 11 10 8 8 9 10 9 8 6 6 9 7 5 5 5 5 6 6 6 5 4 3 3 3
10 12 12 12 11 10 11 11 11 10 10 8 6 7 6 4 3 4 6 9 9 10 10 8 9 10 10 8 6 6 8 7 6 6 6 6 6 6 5 4 4 4 4
5 7 9 10 11 10 12 11 11 12 10 9 8 6 6 5 7 6 5 5 5 7 8 9 8 9 9 10 9 9 11 9 8 7 7 7 6 6 5 5 5 5 5
1 2 4 7 8 9 10 11 11 12 11 11 10 9 8 7 7 7 7 5 4 4 5 6 7 7 8 9 10 9 11 11 10 9 8 7 7 6 6 5 6 6 7
2 2 0 2 4 6 7 8 9 11 12 13 12 11 10 9 6 6 6 5 5 3 3 5 6 6 7 8 8 10 12 13 12 11 10 9 8 7 5 5 6 7 8
4 3 2 1 0 2 4 5 6 8 9 11 12 12 10 10 8 7 6 5 5 5 5 6 4 6 7 8 6 9 10 14 14 13 12 11 10 8 6 6 6 6 7
5 6 5 5 4 3 1 2 3 5 6 8 9 10 9 8 8 7 6 5 5 5 5 4 4 4 5 5 5 8 9 12 14 14 13 12 12 10 8 7 6 6 6
7 6 6 6 5 5 4 2 1 1 2 4 5 7 7 6 7 7 6 5 4 4 3 3 3 3 3 4 4 6 6 8 11 12 13 12 12 11 10 8 7 6 7
8 8 7 6 6 6 5 4 3 2 1 0 2 4 5 5 5 6 6 6 5 4 3 2 2 3 4 4 4 5 6 7 9 10 10 10 11 11 10 9 8 7 7
9 8 8 7 7 6 5 4 4 3 3 3 2 2 3 4 5 5 5 6 5 4 4 4 4 4 5 4 4 4 4 5 5 8 7 7 7 7 7 7 7 6 7
10 10 9 9 8 7 5 4 2 2 2 3 3 3 3 4 5 5 5 5 4 4 3 4 4 3 4 4 5 4 5 4 5 8 8 7 6 5 3 1 1 2 3
11 11 11 10 10 9 9 6 3 1 1 1 2 3 4 4 5 5 4 5 5 5 4 4 4 4 4 4 5 5 6 5 5 7 10 12 14 15 13 11 8 6 5
11 11 11 11 11 11 12 11 6 4 2 1 1 2 3 4 5 5 4 4 5 4 4 4 5 4 4 5 4 4 6 7 6 6 7 7 9 10 11 13 14 14 14
11 11 11 11 12 11 14 15 11 6 5 3 2 3 4 3 4 4 4 3 3 3 4 4 4 5 5 4 4 5 7 7 4 5 7 7 8 9 11 12 14 15 15
11 11 11 10 10 13 16 14 12 7 6 5 4 3 3 5 5 4 5 6 5 5 2 1 4 4 5 5 6 6 6 6 6 5 8 7 7 9 11 14 16 16 16
9 9 9 10 9 12 16 14 11 5 6 6 5 4 4 6 5 5 5 5 6 6 4 3 6 6 5 5 5 7 10 11 9 5 6 5 6 7 9 13 17 18 18
8 8 8 9 9 10 15 15 13 5 4 5 5 5 4 6 7 5 5 6 7 7 11 15 14 12 11 9 5 7 9 9 7 5 4 4 6 7 7 8 14 19 20
7 7 7 8 9 10 13 15 13 5 4 4 4 5 7 5 5 3 6 6 7 6 7 8 8 9 9 9 4 4 5 8 8 5 4 5 7 6 5 4 5 7 11
Wind_Direction
237 234 226 218 222 217 206 217 221 208 217 216 206 213 204 196 198 199 126 122 111 82 270 218 198 196 198 201 200 193 181 171 161 153 152 155 158 159 160 160 162 164 164
237 239 237 224 224 222 221 219 217 208 212 215 213 211 223 209 207 200 183 147 144 133 333 267 233 213 205 203 206 208 193 177 177 171 168 168 171 174 176 180 186 196 203
243 238 241 233 224 219 220 222 217 215 214 211 219 225 222 228 225 215 197 203 166 153 164 221 259 247 220 208 205 206 201 192 190 188 185 185 186 188 193 201 210 221 230
247 242 240 238 232 224 220 215 220 215 214 217 223 221 223 215 230 230 218 208 205 177 163 164 211 235 229 219 209 207 205 198 198 199 199 199 199 201 207 217 227 239 247
254 244 240 240 232 225 222 219 215 219 224 225 234 231 233 222 219 221 227 222 200 211 197 152 185 203 208 207 208 212 209 201 198 201 203 203 204 209 215 225 237 247 253
254 248 241 238 233 223 220 218 215 217 233 233 240 236 231 227 225 222 231 232 228 211 212 194 193 179 185 191 202 215 211 199 198 198 199 198 198 201 206 214 230 243 250
244 240 238 236 228 221 220 216 213 213 222 231 238 235 228 226 231 220 225 230 229 222 219 212 215 196 175 182 195 203 208 200 194 194 193 189 185 186 190 197 209 219 219
235 232 229 230 227 223 222 216 206 209 211 215 227 238 237 226 224 228 224 228 236 218 225 219 212 203 206 188 152 176 190 197 192 192 189 180 173 173 177 185 199 212 212
237 229 226 225 225 222 223 217 207 207 206 210 224 223 229 234 229 215 222 225 230 233 227 226 223 209 202 201 178 179 184 192 196 193 186 177 173 174 179 192 202 207 201
241 231 226 225 223 222 222 218 212 215 210 207 210 225 238 263 235 225 215 227 228 230 233 226 228 225 208 205 191 157 178 193 199 198 193 186 182 183 187 198 207 205 202
242 234 226 222 222 222 223 219 212 214 212 210 203 202 219 236 244 245 234 214 218 228 234 235 226 225 216 213 206 186 182 197 204 208 205 199 195 194 200 203 209 207 197
243 233 224 222 222 221 221 219 215 213 214 216 213 207 203 206 216 223 228 227 224 226 227 231 235 224 221 224 213 167 187 201 207 211 210 206 203 204 207 208 207 206 204
33 24 225 221 224 230 230 225 220 219 219 221 221 219 217 216 203 200 211 220 224 222 225 227 225 222 219 222 211 183 203 208 212 213 210 206 203 207 218 221 217 216 210
35 32 49 69 132 233 237 234 233 231 231 231 230 224 220 218 208 200 196 195 209 212 217 224 205 215 217 220 199 192 209 206 213 214 212 208 205 205 213 225 233 232 226
38 41 46 50 51 42 1 265 244 241 241 239 236 229 222 214 206 201 191 189 194 198 209 218 207 200 208 215 181 214 218 197 207 214 214 211 208 208 213 220 230 236 239
39 44 50 55 52 47 42 40 18 303 252 243 232 224 217 210 199 192 187 186 192 188 194 195 204 177 190 207 194 225 220 170 201 211 214 213 210 210 214 218 226 233 243
35 39 39 45 48 47 46 51 54 49 66 93 216 203 199 192 188 181 178 177 182 178 187 179 194 193 200 207 184 202 203 203 193 193 204 209 210 213 214 217 226 235 245
36 37 38 39 40 37 36 40 45 49 59 70 84 129 162 172 172 169 170 170 171 177 187 189 191 196 203 191 189 187 186 190 176 149 172 185 193 203 209 220 232 242 252
35 38 40 38 35 29 25 27 31 38 60 82 103 114 128 135 138 142 150 157 159 172 185 191 180 174 188 180 179 169 163 154 141 132 129 121 111 106 103 113 243 267 273
38 35 38 38 36 31 20 11 13 22 34 69 113 123 131 137 138 135 140 151 158 165 170 176 172 174 174 176 183 169 153 137 127 115 95 94 90 82 75 70 66 66 66
40 36 36 37 37 33 21 8 4 19 16 30 94 118 122 122 141 146 151 159 164 162 166 175 171 169 167 171 170 163 144 128 108 110 105 93 89 78 72 66 66 71 74
35 33 31 32 35 32 20 17 5 23 25 31 54 92 113 122 133 134 136 137 137 160 169 171 165 161 152 148 146 153 149 147 119 105 100 82 79 74 62 62 65 72 74
29 28 25 25 27 26 19 18 10 19 32 34 36 68 103 102 109 117 122 125 100 67 29 148 136 129 134 141 150 151 149 127 107 113 107 91 82 79 72 63 65 69 71
27 25 22 18 19 22 15 13 354 26 42 43 45 64 103 113 111 110 116 103 94 82 60 84 95 93 96 115 125 122 115 110 101 93 110 100 98 92 84 69 64 68 69
22 25 25 19 17 18 14 8 350 27 46 51 49 56 78 110 105 109 117 114 101 85 67 68 69 77 68 58 79 127 133 129 118 101 103 110 124 111 97 94 80 75 72
22 24 28 22 19 16 13 9 357 15 38 56 60 71 66 73 100 118 146 143 130 121 115 107 100 104 97 86 48 120 136 137 132 120 129 136 152 141 110 82 80 85 81
Height
1556 1558 1559 1560 1561 1562 1562 1562 1564 1565 1566 1568 1569 1570 1571 1572 1573 1573 1572 1570 1569 1568 1568 1568 1568 1568 1569 1570 1571 1572 1572 1573 1574 1574 1575 1576 1577 1578 1579 1579 1580 1580 1581
1553 1554 1556 1557 1558 1559 1560 1561 1562 1563 1564 1566 1567 1569 1570 1571 1571 1571 1572 1570 1569 1568 1567 1567 1567 1568 1568 1569 1570 1571 1572 1573 1573 1574 1575 1576 1577 1578 1578 1579 1580 1580 1580
1549 1551 1552 1554 1556 1556 1558 1559 1561 1562 1563 1564 1565 1567 1568 1569 1570 1570 1570 1570 1570 1568 1567 1566 1566 1567 1567 1568 1569 1570 1571 1572 1573 1574 1574 1575 1576 1577 1578 1579 1579 1580 1580
1546 1547 1548 1550 1552 1554 1555 1556 1557 1559 1561 1562 1564 1565 1566 1567 1568 1569 1569 1569 1569 1568 1567 1566 1566 1566 1566 1567 1568 1568 1569 1571 1572 1573 1573 1574 1575 1576 1577 1577 1578 1578 1579
1542 1543 1544 1546 1548 1549 1551 1553 1554 1556 1559 1560 1561 1562 1564 1564 1565 1566 1567 1568 1568 1567 1568 1566 1566 1565 1565 1566 1567 1567 1568 1569 1570 1571 1572 1573 1574 1575 1575 1576 1577 1577 1577
1538 1539 1540 1541 1543 1545 1546 1549 1551 1552 1555 1557 1558 1560 1561 1562 1563 1564 1565 1566 1567 1567 1567 1567 1566 1566 1565 1565 1565 1566 1567 1568 1569 1570 1570 1571 1572 1573 1574 1574 1575 1575 1575
1532 1534 1536 1537 1539 1540 1542 1544 1546 1548 1550 1553 1555 1557 1558 1558 1560 1561 1562 1563 1564 1565 1565 1565 1566 1566 1565 1564 1565 1565 1565 1566 1567 1568 1569 1570 1571 1571 1572 1573 1573 1573 1574
1525 1527 1530 1531 1533 1535 1537 1539 1541 1543 1546 1548 1551 1553 1554 1556 1555 1557 1558 1559 1561 1562 1563 1564 1565 1564 1565 1565 1564 1564 1564 1565 1566 1567 1568 1568 1569 1570 1570 1571 1571 1572 1572
1519 1521 1523 1525 1528 1530 1532 1534 1536 1538 1541 1543 1546 1548 1550 1550 1551 1553 1554 1555 1557 1559 1560 1561 1562 1563 1563 1564 1564 1563 1564 1564 1565 1565 1566 1567 1568 1568 1569 1569 1569 1570 1570
1513 1514 1517 1519 1522 1524 1526 1528 1530 1533 1535 1537 1540 1542 1545 1546 1548 1549 1550 1551 1553 1555 1556 1558 1559 1561 1562 1562 1562 1562 1563 1563 1564 1564 1565 1566 1566 1567 1567 1567 1568 1568 1568
1508 1509 1511 1514 1516 1518 1520 1523 1524 1527 1529 1532 1534 1536 1538 1541 1543 1545 1546 1548 1549 1550 1552 1554 1556 1557 1559 1559 1560 1561 1561 1562 1563 1563 1564 1565 1565 1565 1566 1566 1566 1567 1567
1505 1506 1507 1509 1511 1513 1515 1517 1519 1521 1523 1525 1528 1530 1532 1534 1536 1539 1541 1543 1545 1546 1548 1549 1551 1553 1554 1556 1557 1558 1559 1560 1561 1562 1563 1564 1564 1564 1565 1565 1565 1566 1566
1503 1503 1504 1506 1507 1509 1511 1513 1514 1516 1518 1520 1522 1524 1526 1528 1531 1533 1536 1538 1540 1542 1543 1545 1547 1549 1550 1552 1553 1554 1556 1558 1559 1560 1561 1562 1563 1563 1563 1563 1564 1564 1565
1502 1503 1503 1504 1504 1505 1507 1508 1510 1511 1513 1514 1516 1518 1520 1522 1524 1527 1530 1532 1534 1537 1538 1541 1543 1545 1546 1548 1549 1551 1553 1555 1556 1558 1559 1560 1561 1561 1561 1562 1562 1563 1563
1503 1502 1502 1502 1503 1503 1504 1505 1506 1507 1508 1509 1510 1512 1514 1516 1518 1520 1523 1526 1530 1531 1533 1536 1539 1540 1542 1544 1545 1547 1549 1551 1553 1555 1556 1557 1558 1559 1560 1560 1560 1561 1561
1504 1504 1503 1503 1502 1502 1502 1502 1503 1503 1504 1504 1505 1507 1508 1510 1512 1514 1517 1520 1523 1527 1529 1532 1535 1537 1538 1540 1541 1543 1545 1546 1549 1551 1553 1554 1556 1557 1557 1558 1558 1558 1559
1506 1506 1505 1504 1504 1503 1502 1502 1501 1501 1501 1501 1501 1502 1503 1505 1507 1510 1512 1515 1519 1522 1526 1529 1531 1533 1535 1537 1538 1539 1541 1543 1545 1547 1549 1551 1553 1554 1555 1555 1556 1556 1556
1509 1508 1506 1506 1505 1504 1503 1503 1502 1501 1500 1499 1499 1499 1500 1502 1504 1506 1509 1512 1515 1518 1522 1525 1528 1530 1532 1533 1535 1536 1538 1540 1542 1543 1545 1548 1549 1551 1552 1553 1553 1553 1554
1511 1510 1508 1507 1506 1505 1504 1504 1503 1502 1501 1500 1499 1499 1499 1500 1502 1504 1507 1510 1513 1516 1520 1523 1525 1527 1529 1530 1532 1533 1535 1537 1539 1540 1542 1545 1546 1548 1549 1550 1550 1550 1551
1512 1511 1510 1509 1507 1506 1505 1504 1503 1503 1502 1501 1500 1500 1500 1501 1502 1504 1507 1509 1512 1515 1518 1521 1523 1525 1526 1527 1529 1531 1533 1534 1536 1538 1540 1542 1543 1545 1546 1547 1547 1547 1548
1515 1513 1512 1510 1508 1507 1505 1504 1504 1503 1502 1502 1502 1501 1501 1502 1504 1505 1508 1510 1512 1515 1517 1519 1521 1523 1524 1525 1527 1528 1531 1532 1535 1537 1538 1540 1542 1543 1544 1544 1545 1545 1545
1517 1515 1513 1511 1509 1508 1506 1505 1504 1503 1502 1502 1502 1502 1503 1503 1505 1507 1509 1511 1513 1515 1518 1519 1520 1522 1523 1524 1525 1526 1529 1531 1534 1536 1537 1539 1541 1542 1543 1543 1544 1544 1544
1519 1517 1515 1513 1511 1509 1507 1505 1504 1504 1503 1502 1503 1503 1503 1504 1506 1508 1510 1512 1514 1516 1518 1519 1520 1521 1522 1522 1524 1526 1528 1531 1532 1535 1538 1539 1541 1542 1543 1543 1544 1544 1544
1521 1518 1516 1514 1512 1510 1508 1506 1505 1504 1503 1503 1503 1503 1504 1505 1507 1509 1511 1513 1515 1516 1518 1520 1521 1521 1522 1523 1524 1526 1528 1530 1533 1536 1539 1540 1542 1543 1544 1545 1545 1545 1545
1522 1520 1517 1515 1513 1511 1508 1506 1505 1505 1504 1504 1504 1504 1505 1506 1508 1510 1512 1514 1516 1518 1519 1520 1521 1522 1523 1524 1525 1527 1529 1532 1534 1537 1540 1541 1543 1545 1546 1546 1546 1546 1545
1524 1522 1519 1516 1514 1512 1509 1507 1505 1505 1505 1504 1504 1505 1506 1507 1509 1511 1514 1516 1518 1520 1521 1522 1524 1524 1525 1526 1528 1530 1532 1534 1536 1538 1540 1542 1544 1545 1546 1547 1547 1546 1546